Regional Weather Roundup
Issued by NWS

Home | Current Version | Previous Version | Graphics & Text | Print | Product List | Glossary Off
Versions: 1 2 3 4 5 6 7 8 9 10 11 12 13 14 15 16 17 18 19 20 21 22 23 24 25 26 27 28 29 30 31 32 33 34 35 36 37 38 39 40 41 42 43 44 45 46 47 48 49 50

000
ASUS43 KMKX 120821
RWRWI

WISCONSIN REGIONAL WEATHER ROUNDUP
NATIONAL WEATHER SERVICE MILWAUKEE/SULLIVAN WI
300 AM CDT SAT JUL 12 2014

NOTE: "FAIR" INDICATES FEW OR NO CLOUDS BELOW 12,000 FEET WITH NO
SIGNIFICANT WEATHER AND/OR OBSTRUCTIONS TO VISIBILITY.

WIZ001-002-006>008-014>016-023>028-120900-
NORTHWEST WISCONSIN

CITY           SKY/WX    TMP DP  RH WIND       PRES   REMARKS
SUPERIOR ARPT    N/A     65  64  99 CALM      29.96F FOG
ASHLAND        PTCLDY    65  63  93 S5        29.97F
HAYWARD        FOG       64  63  96 CALM      30.00S VSB 1/4
SIREN          MOCLDY    66  65  97 CALM      29.98F FOG
RICE LAKE      MOCLDY    65  64  94 CALM      30.02F FOG
LADYSMITH      MOCLDY    66  64  94 CALM      30.03S
EAU CLAIRE     PTCLDY    69  67  93 S5        29.99F
MENOMONIE      MOSUNNY   69  67  92 CALM      30.00F
NEW RICHMOND   PTCLDY    67  66  97 CALM      30.00S
OSCEOLA        PTCLDY    68  68 100 CALM      30.01F
$$

WIZ003>005-009-010-017-018-120900-
NORTH CENTRAL WISCONSIN

CITY           SKY/WX    TMP DP  RH WIND       PRES   REMARKS
WOODRUFF       PTCLDY    63  60  90 SW5       30.02F
RHINELANDER    MOCLDY    65  62  90 SW5       30.04F
EAGLE RIVER    PTCLDY    64  62  94 SW6       30.02F
LAND O LAKES   CLOUDY    66  62  87 SW3       30.03F
PHILLIPS       CLOUDY    66  64  93 CALM      30.02S
TOMAHAWK       CLOUDY    65  61  86 CALM      30.04S
MEDFORD        MOCLDY    65  63  94 SW5       30.03S
MERRILL        MOCLDY    62  61  96 CALM      30.03F
$$

WIZ029-030-035-036-043>047-120900-
CENTRAL WISCONSIN

CITY           SKY/WX    TMP DP  RH WIND       PRES   REMARKS
WAUSAU         MOCLDY    67  61  81 CALM      30.01F
MOSINEE        PTCLDY    63  61  94 S7        30.04F
MARSHFIELD     MOCLDY    66  63  90 S7        30.02F
STEVENS POINT  CLOUDY    66  59  79 SW5       30.03F
WAUPACA        CLEAR     65  59  82 CALM      30.03F
WAUTOMA        CLEAR     62  60  93 CALM      30.04F
WISC RAPIDS    CLOUDY    68  62  81 CALM      30.04F
CAMP DOUGLAS   PTCLDY    70  66  88 CALM      30.02F
$$

WIZ011>013-019>022-031-037>040-048>050-120900-
NORTHEAST WISCONSIN

CITY           SKY/WX    TMP DP  RH WIND       PRES   REMARKS
ANTIGO         PTCLDY    61  59  93 CALM      30.04F
STURGEON BAY   CLOUDY    66  55  68 S7        30.04F
GREEN BAY      MOCLDY    64  58  80 S3        30.03F
MANITOWOC      CLOUDY    59  54  83 E5        30.05F
APPLETON       PTCLDY    64  55  72 SW3       30.04F
CLINTONVILLE   PTCLDY    61  59  94 CALM      30.02F
OSHKOSH        PTCLDY    67  60  78 S7        30.03F
$$

WIZ032>034-041-042-053>061-120900-
SOUTHWEST WISCONSIN

CITY           SKY/WX    TMP DP  RH WIND       PRES   REMARKS
LA CROSSE      CLOUDY    71  66  84 E3        30.00F
SPARTA         PTCLDY    64  62  93 CALM      30.03F
VIROQUA        CLOUDY    68  65  90 SE5       30.03F
BOSCOBEL       CLOUDY    70  66  87 CALM      30.02F
PRAIRIE DU CHI MOCLDY    68  65  88 E5        30.01S
PLATTEVILLE    MOCLDY    69  65  88 CALM      30.04F
$$

WIZ056-057-062-063-064-067-068-120900-
SOUTH CENTRAL WISCONSIN

CITY           SKY/WX    TMP DP  RH WIND       PRES   REMARKS
BARABOO/DELLS  CLOUDY    69  61  77 CALM      30.03F
LONE ROCK      CLOUDY    73  66  78 E3        30.02F
WATERTOWN      CLOUDY    66  61  83 CALM      30.04F
MADISON        CLOUDY    72  62  71 S6        30.04F
MIDDLETON      CLOUDY    72  61  68 S7        30.04F
MONROE         CLOUDY    70  63  78 S9        30.05S
JANESVILLE     CLOUDY    72  59  64 SE5       30.04F
$$

WIZ051-052-058>065-066-070>072-120900-
SOUTHEAST WISCONSIN

CITY           SKY/WX    TMP DP  RH WIND       PRES   REMARKS
MILWAUKEE      MOCLDY    70  59  68 S7        30.06F
WAUKESHA       CLEAR     64  57  77 S5        30.07F
MILWAUKEE/TIMM MOCLDY    66  55  68 SW3       30.06F
RACINE         CLOUDY    70  61  73 S7        30.08F
BURLINGTON     PTCLDY    66  60  79 S5        30.06F
KENOSHA        CLOUDY    70  61  73 S6        30.07F
FOND DU LAC    PTCLDY    65  59  81 S7        30.04F
SHEBOYGAN      CLEAR     63  56  78 CALM      30.05F
WEST BEND      CLOUDY    63  55  77 CALM      30.05F
JUNEAU         MOCLDY    66  46  48 SE6       30.06F
$$

LSZ147-162-120900-
LAKE SUPERIOR

STATION/POSITION TIME  TEMP    WIND        PRES    WAVE
                       AIR SEA DIR/SP/G            HT/PER
                 (UTC) (F)     (DEG/KT/KT) (MB)    (FT/S)
W MID LAKE BUOY  0750   45 38  230/  8/ 10 1013.9F   1
PORT WING        0740   62     230/  2/  4 1014.6S
SAXON HARBOR     0700          200/  7/ 13 1014.9S
$$

LMZ867-665-643>646-120900-
LAKE MICHIGAN

STATION/POSITION TIME  TEMP    WIND        PRES    WAVE
                       AIR SEA DIR/SP/G            HT/PER
                 (UTC) (F)     (DEG/KT/KT) (MB)    (FT/S)
N MID LAKE BUOY  0650   58 53  200/ 14/ 17 1016.9F   2/ 5
NORTHPORT PIER   0700   64     150/  4/  6 1016.9F
KEWAUNEE LAKESHO 0700   53     180/  8/ 10 1018.2F
SHEBOYGAN LAKESH 0800   62     190/ 11/ 12 1017.7F
PORT WASHINGTON  0700   57      CALM  /  3 1019.0
MILWAUKEE LAKESH 0800   59        CALM       N/A
S MID LAKE BUOY  0750   64 60  160/  8/ 10 1018.8F   0
KENOSHA   LAKESH 0800   67     180/  7/  8   N/A
$$

TC  - TEMPERATURE IN CELSIUS
VSB - VISIBILITY IN STATUTE MILES
WCI - WIND CHILL INDEX
HX  - HEAT INDEX



USA.gov is the U.S. government's official web portal to all federal, state and local government web resources and services.